CW4797 Weather Reports


Display with metric or nautical units.
time (UTC)temp
F
wind
direction
speed
MPH
gust
MPH
rain 1hr
in
rain 24hr
in
rain mn
in
humidity
%
barometer
mb
20201125140046 25 36 1.0 3.0 0.00 0.01 0.00 76 1032.6
20201125131514 24 139 0.0 3.0 0.00 0.01 0.00 76 1032.8
20201125130248 24 122 0.0 2.0 0.00 0.01 0.00 76 1033.0
20201125124617 24 122 1.0 3.0 0.00 0.01 0.00 76 1032.9
20201125123205 24 88 1.0 2.0 0.00 0.01 0.00 77 1033.1
20201125121617 23 88 0.0 3.0 0.00 0.01 0.00 77 1033.1
20201125120221 23 87 1.0 3.0 0.00 0.01 0.00 76 1033.4
20201125114634 23 77 1.0 2.0 0.00 0.01 0.00 76 1033.6
20201125113157 23 104 0.0 2.0 0.00 0.01 0.00 76 1033.6
20201125111653 23 104 0.0 3.0 0.00 0.01 0.00 76 1033.7
20201125110208 23 102 0.0 2.0 0.00 0.01 0.00 76 1033.8
20201125104716 23 102 0.0 3.0 0.00 0.01 0.00 75 1033.7
20201125103251 23 137 1.0 3.0 0.00 0.01 0.00 74 1033.7
20201125101752 23 137 1.0 3.0 0.00 0.01 0.00 74 1033.8
20201125100108 23 137 1.0 2.0 0.00 0.01 0.00 73 1033.4
20201125094637 22 137 0.0 2.0 0.00 0.01 0.00 71 1033.8
20201125093156 22 137 0.0 2.0 0.00 0.01 0.00 71 1033.6
20201125091647 22 137 0.0 2.0 0.00 0.01 0.00 73 1033.7
20201125090248 22 137 0.0 0.0 0.00 0.01 0.00 72 1033.8
20201125084549 22 137 0.0 2.0 0.00 0.01 0.00 72 1033.5
20201125083127 22 137 0.0 0.0 0.00 0.01 0.00 73 1033.5
20201125081745 22 137 0.0 0.0 0.00 0.01 0.00 74 1033.5
20201125080134 22 137 0.0 0.0 0.00 0.01 0.00 73 1033.8
20201125074549 21 137 0.0 0.0 0.00 0.01 0.00 73 1033.8
20201125073113 21 137 0.0 0.0 0.00 0.01 0.00 75 1033.6
20201125071603 21 137 0.0 0.0 0.00 0.01 0.00 76 1033.5
20201125070135 21 137 0.0 0.0 0.00 0.01 0.00 75 1033.7
20201125064602 21 137 0.0 0.0 0.00 0.01 0.00 74 1033.6
20201125063111 21 137 0.0 1.0 0.00 0.01 0.00 75 1033.4
20201125061556 20 137 0.0 2.0 0.00 0.01 0.00 76 1033.4
20201125060155 21 137 0.0 0.0 0.00 0.01 0.00 76 1033.2
20201125054619 21 137 0.0 0.0 0.00 0.01 0.00 75 1033.3
20201125053049 21 137 0.0 2.0 0.00 0.01 0.00 76 1033.6
20201125051545 21 137 1.0 2.0 0.00 0.01 0.00 76 1034.0
20201125050050 21 88 0.0 2.0 0.00 0.01 0.01 76 1033.7
20201125044523 21 88 0.0 2.0 0.00 0.01 0.01 76 1033.1
20201125043021 21 88 0.0 2.0 0.00 0.01 0.01 74 1033.3
20201125041551 22 88 0.0 1.0 0.00 0.01 0.01 73 1033.1
20201125040030 22 88 0.0 1.0 0.00 0.01 0.01 72 1032.6
20201125034526 22 88 0.0 2.0 0.00 0.01 0.01 71 1032.7
20201125033017 23 113 0.0 3.0 0.00 0.01 0.01 69 1032.2
20201125031525 23 117 0.0 4.0 0.00 0.01 0.01 70 1032.0
20201125030101 23 90 1.0 3.0 0.00 0.01 0.01 70 1032.3
20201125024520 23 42 1.0 3.0 0.00 0.01 0.01 69 1032.4
20201125023020 23 105 1.0 2.0 0.00 0.01 0.01 67 1032.5
20201125021808 24 105 0.0 3.0 0.00 0.01 0.01 67 1032.1
20201125020340 24 120 1.0 5.0 0.00 0.01 0.01 66 1032.3
20201125014642 24 90 1.0 3.0 0.00 0.01 0.01 64 1032.1
20201125013319 24 117 2.0 4.0 0.00 0.01 0.01 66 1032.1
20201125011727 24 132 2.0 3.0 0.00 0.01 0.01 66 1032.1
20201125010153 25 45 0.0 2.0 0.00 0.01 0.01 65 1031.7
20201125004642 25 25 0.0 3.0 0.00 0.01 0.01 67 1031.6
20201125003146 25 25 0.0 0.0 0.00 0.01 0.01 65 1031.1
20201125001802 25 286 0.0 0.0 0.00 0.01 0.01 69 1031.0
20201125000140 26 286 0.0 2.0 0.00 0.01 0.01 70 1031.1
20201124234615 26 286 0.0 2.0 0.00 0.01 0.01 66 1030.8
20201124233128 26 285 0.0 0.0 0.00 0.01 0.01 65 1030.6
20201124231608 27 285 0.0 1.0 0.00 0.01 0.01 61 1030.4
20201124230109 27 285 0.0 1.0 0.00 0.01 0.01 62 1030.0
20201124224534 28 16 0.0 1.0 0.00 0.01 0.01 59 1029.9
20201124223046 28 16 1.0 2.0 0.00 0.01 0.01 59 1029.3
20201124221555 29 45 0.0 3.0 0.00 0.01 0.01 56 1028.9
20201124220108 29 52 0.0 3.0 0.00 0.01 0.01 58 1028.5
20201124214543 30 296 0.0 2.0 0.00 0.01 0.01 59 1028.1
20201124213053 31 296 0.0 2.0 0.00 0.01 0.01 54 1027.6
20201124211521 31 133 0.0 2.0 0.00 0.01 0.01 54 1027.2
20201124210028 32 132 1.0 4.0 0.00 0.01 0.01 54 1026.9
20201124204523 32 92 1.0 3.0 0.00 0.01 0.01 53 1026.6
20201124203031 33 160 1.0 4.0 0.00 0.01 0.01 51 1026.3
20201124201712 33 60 2.0 6.0 0.00 0.01 0.01 50 1026.0
20201124200210 34 98 1.0 4.0 0.00 0.01 0.01 50 1025.9
20201124194728 34 53 2.0 6.0 0.00 0.01 0.01 50 1025.5
20201124193219 34 178 3.0 8.0 0.00 0.01 0.01 48 1025.4
20201124191746 35 53 2.0 9.0 0.00 0.01 0.01 47 1025.1
20201124190209 35 10 0.0 6.0 0.00 0.01 0.01 49 1025.0
20201124184635 35 167 1.0 5.0 0.00 0.01 0.01 49 1024.9
20201124183118 35 266 1.0 8.0 0.00 0.01 0.01 49 1024.6
20201124181631 35 182 2.0 5.0 0.00 0.01 0.01 50 1024.3
20201124180147 35 71 1.0 7.0 0.00 0.09 0.01 49 1024.1
20201124174713 35 226 2.0 8.0 0.00 0.09 0.01 51 1024.0
20201124173136 36 234 3.0 10.0 0.00 0.09 0.01 50 1024.0
20201124171622 36 360 2.0 8.0 0.00 0.09 0.01 48 1023.6
20201124170105 37 33 1.0 7.0 0.00 0.21 0.01 50 1023.5
20201124164553 36 20 3.0 9.0 0.00 0.21 0.01 49 1023.2
20201124163209 37 360 3.0 6.0 0.01 0.21 0.01 50 1023.3
20201124161615 37 293 1.0 3.0 0.01 0.21 0.01 51 1023.6